Baton Rouge, LA

1:50 PM CST on November 20, 2017 (GMT -0600)
Baton Rouge Metro-Ryan

Weather History for KBTR - January, 2013

Change the Weather History Date:

Tuesday, January 1, 2013

  Actual Average Record
Temperature  
Mean Temperature 57 °F 52 °F  
Max Temperature 66 °F 62 °F 82 °F (1952)
Min Temperature 48 °F 41 °F 19 °F (1984)
Degree Days  
Heating Degree Days 8 14  
Month to date heating degree days 8 14  
Since 1 July heating degree days 585 630  
Cooling Degree Days 0 1  
Month to date cooling degree days 0 1  
Year to date cooling degree days 0 1  
Growing Degree Days 6 (Base 50)    
Moisture  
Dew Point 56 °F    
Average Humidity 93    
Maximum Humidity 100    
Minimum Humidity 86    
Precipitation  
Precipitation 1.46 in 0.17 in 4.57 in (1942)
Month to date precipitation 1.46 0.17  
Year to date precipitation 1.46 0.17  
Snow  
Snow 0.00 in - - ()
Month to date snowfall  
Since 1 July snowfall 0.0  
Snow Depth 0.00 in    
Sea Level Pressure  
Sea Level Pressure 30.01 in    
Wind  
Wind Speed 6 mph (North)    
Max Wind Speed 15 mph    
Max Gust Speed 20 mph    
Visibility 6 miles    
Events Rain    
T = Trace of Precipitation, MM = Missing Value Source: NWS Daily Summary

Daily Weather History Graph

Daily Weather History Graph

Search for Another Location

Airport or City:

Trip Planner

Search our weather history database for the weather conditions in past years. The results will help you decide how hot, cold, wet, or windy it might be!

Date:

Astronomy

Jan. 01, 2013 Rise Set
Actual Time 7:01 AM CST 5:15 PM CST
Civil Twilight 6:35 AM CST 5:41 PM CST
Nautical Twilight 6:05 AM CST 6:11 PM CST
Astronomical Twilight 5:36 AM CST 6:40 PM CST
Moon 9:26 PM CST (1/1) 9:31 AM CST (1/1)
Length of Visible Light 11h 06m
Length of Day
10h 13m
Waning Gibbous, 83% of the Moon is Illuminated
Jan 1
Waning Gibbous
Jan 4
Last Quarter
Jan 11
New
Jan 18
First Quarter
Jan 26
Full

Hourly Weather History & Observations

Time (CST) Temp. Dew Point Humidity Pressure Visibility Wind Dir Wind Speed Gust Speed Precip Events Conditions
12:53 AM 55.9 °F 54.0 °F 93% 30.01 in 6.0 mi ESE 4.6 mph - N/A   Clear
1:53 AM 57.0 °F 54.0 °F 89% 30.01 in 4.0 mi ESE 3.5 mph - N/A   Overcast
2:53 AM 57.0 °F 55.0 °F 93% 30.00 in 4.0 mi ESE 3.5 mph - N/A   Overcast
3:53 AM 57.9 °F 55.9 °F 93% 29.97 in 5.0 mi SE 5.8 mph - N/A   Overcast
4:53 AM 57.9 °F 57.0 °F 97% 29.96 in 6.0 mi SSE 4.6 mph - N/A   Scattered Clouds
5:53 AM 59.0 °F 57.0 °F 93% 29.95 in 8.0 mi SSE 4.6 mph - N/A   Partly Cloudy
6:53 AM 63.0 °F 60.1 °F 90% 29.95 in 10.0 mi South 6.9 mph - N/A   Mostly Cloudy
7:53 AM 64.0 °F 61.0 °F 90% 29.96 in 10.0 mi South 10.4 mph - N/A   Overcast
8:53 AM 64.9 °F 62.1 °F 90% 29.98 in 10.0 mi SSW 3.5 mph - N/A   Overcast
9:46 AM 64.4 °F 60.8 °F 88% 30.00 in 10.0 mi Variable 3.5 mph - 0.00 in Rain Light Rain
9:53 AM 64.0 °F 61.0 °F 90% 30.01 in 10.0 mi North 3.5 mph - 0.00 in Rain Light Rain
10:15 AM 62.6 °F 60.8 °F 94% 30.01 in 6.0 mi NNW 5.8 mph - 0.02 in Rain Light Rain
10:32 AM 62.6 °F 60.8 °F 94% 30.01 in 4.0 mi NNW 5.8 mph - 0.02 in Rain Light Rain
10:41 AM 62.6 °F 60.8 °F 94% 30.01 in 4.0 mi North 4.6 mph - 0.02 in Rain Light Rain
10:53 AM 62.1 °F 61.0 °F 96% 30.01 in 4.0 mi Calm Calm - 0.03 in Rain Light Rain
11:00 AM 62.6 °F 60.8 °F 94% 30.01 in 5.0 mi North 3.5 mph - 0.00 in Rain Light Rain
11:25 AM 62.6 °F 60.8 °F 94% 29.99 in 2.0 mi Calm Calm - 0.03 in Rain Rain
11:32 AM 62.6 °F 60.8 °F 94% 29.99 in 1.5 mi Calm Calm - 0.07 in Rain Heavy Rain
11:39 AM 62.6 °F 62.6 °F 100% 29.98 in 2.0 mi Calm Calm - 0.09 in Rain Rain
11:53 AM 63.0 °F 62.1 °F 97% 29.96 in 1.5 mi ESE 5.8 mph - 0.14 in Rain Rain
12:53 PM 63.0 °F 63.0 °F 100% 29.92 in 1.0 mi Calm Calm - 0.20 in Rain Heavy Rain
1:33 PM 62.6 °F 62.6 °F 100% 29.91 in 0.8 mi Calm Calm - 0.21 in Rain Heavy Rain
1:44 PM 62.6 °F 62.6 °F 100% 29.92 in 0.8 mi Calm Calm - 0.30 in Rain Heavy Rain
1:53 PM 63.0 °F 63.0 °F 100% 29.92 in 0.8 mi Calm Calm - 0.38 in Rain Heavy Rain
2:39 PM 57.2 °F 57.2 °F 100% 29.95 in 5.0 mi NW 5.8 mph - 0.35 in Rain Light Rain
2:53 PM 55.9 °F 55.0 °F 97% 29.95 in 4.0 mi NNW 10.4 mph 19.6 mph 0.38 in Rain Rain
3:53 PM 54.0 °F 52.0 °F 93% 29.98 in 3.0 mi NNW 6.9 mph 17.3 mph 0.11 in Rain Light Rain
4:53 PM 53.1 °F 52.0 °F 96% 30.01 in 3.0 mi North 10.4 mph - 0.05 in Rain Light Rain
5:53 PM 52.0 °F 50.0 °F 93% 30.03 in 10.0 mi NNW 6.9 mph - 0.03 in Rain Light Rain
6:53 PM 51.1 °F 48.9 °F 92% 30.07 in 10.0 mi North 10.4 mph - 0.06 in Rain Light Rain
7:53 PM 51.1 °F 48.0 °F 89% 30.09 in 10.0 mi North 4.6 mph - 0.04 in Rain Light Rain
8:53 PM 50.0 °F 48.9 °F 96% 30.09 in 10.0 mi NNW 4.6 mph - 0.03 in Rain Light Rain
9:13 PM 50.0 °F 48.2 °F 94% 30.13 in 10.0 mi NNW 8.1 mph - 0.00 in   Mostly Cloudy
9:28 PM 50.0 °F 48.2 °F 94% 30.11 in 10.0 mi NNW 8.1 mph - 0.00 in Rain Light Rain
9:39 PM 50.0 °F 48.2 °F 94% 30.12 in 10.0 mi NNW 9.2 mph - 0.00 in Rain Light Rain
9:53 PM 50.0 °F 46.9 °F 89% 30.11 in 10.0 mi North 8.1 mph 16.1 mph 0.00 in   Overcast
10:53 PM 48.9 °F 46.0 °F 90% 30.12 in 10.0 mi North 6.9 mph - 0.01 in   Overcast
11:53 PM 48.0 °F 46.0 °F 93% 30.14 in 10.0 mi WNW 6.9 mph - 0.00 in   Overcast